Tracking 28799 objects as of 18-Apr-2024
HD Live streaming from Space Station
objects crossing your sky now

DELTA 1 DEB

Track DELTA 1 DEB now!
10-day predictions


NORAD ID: 10864
Int'l Code: 1976-077CS
Perigee: 1,492.2 km
Apogee: 2,106.6 km
Inclination: 101.1 °
Period: 122.5 minutes
Semi major axis: 8170 km
RCS: 0.1081 m2 (medium)
Launch date: July 29, 1976
Source: United States (US)
Launch site: AIR FORCE WESTERN TEST RANGE (AFWTR)

Note: This is SATELLITE DEBRIS
Your satellite tracking list
Your tracking list is empty




NASA's NSSDC Master Catalog

Two Line Element Set (TLE):
1 10864U 76077CS  24108.90070574  .00000155  00000-0  26221-2 0  9999
2 10864 101.0802 327.9925 0376023 279.4818  88.5218 11.75538557 48630
Source of the keplerian elements: AFSPC